VE3KSR Weather Reports


Display with metric or nautical units.
time (UTC)temp
F
wind
direction
speed
MPH
gust
MPH
rain 1hr
in
rain 24hr
in
rain mn
in
humidity
%
barometer
mb
20260906231717 72 0 0.0 0.0 0.00 0.00 0.00 80
20260906231217 71 0 0.0 0.0 0.00 0.00 0.00 80
20260906230718 14 0 0.0 0.0 0.00 0.00 0.00 80
20260906230218 14 336 0.0 1.0 0.00 0.00 0.00 79
20260906225218 73 0 0.0 0.0 0.00 0.00 0.00 74
20260906224718 75 0 0.0 0.0 0.00 0.00 0.00 73
20260906224217 75 336 0.0 2.0 0.00 0.00 0.00 72
20260906223717 0 336 0.0 2.0 0.00 0.00 0.00 70
20260906223217 18 0 0.0 0.0 0.00 0.00 0.00 69
20260906222217 0 0 0.0 0.0 0.00 0.00 0.00 65
20260906221717 0 336 0.0 3.0 0.00 0.00 0.00 65
20260906221217 76 0 0.0 0.0 0.00 0.00 0.00 68
20260906220717 77 0 0.0 0.0 0.00 0.00 0.00 66
20260906220217 0 0 0.0 0.0 0.00 0.00 0.00 67
20260906215217 77 0 0.0 0.0 0.00 0.00 0.00 68
20260906214717 76 0 0.0 0.0 0.00 0.00 0.00 69
20260906214217 74 0 0.0 0.0 0.00 0.00 0.00 70
20260906213717 -11 0 0.0 0.0 0.00 0.00 0.00 71
20260906213217 -13 0 0.0 0.0 0.00 0.00 0.00 71
20260906212717 -15 0 0.0 0.0 0.00 0.00 0.00 74
20260906212217 -15 336 1.0 2.0 0.00 0.00 0.00 73
20260906211717 -3 336 0.0 3.0 0.00 0.00 0.00 73
20260906211217 3 0 0.0 0.0 0.00 0.00 0.00 71
20260906210717 3 0 0.0 0.0 0.00 0.00 0.00 69
20260906210217 -7 336 0.0 2.0 0.00 0.00 0.00 68
20260906205717 0 111 2.0 5.0 0.00 0.00 0.00 66
20260906205219 -25 0 0.0 0.0 0.00 0.00 0.00 59
20260906204717 0 0 0.0 0.0 0.00 0.00 0.00 61
20260906204217 -26 0 0.0 0.0 0.00 0.00 0.00 63
20260906203717 -26 0 0.0 0.0 0.00 0.00 0.00 63
20260906203217 -15 0 0.0 0.0 0.00 0.00 0.00 64
20260906202718 -17 0 0.0 0.0 0.00 0.00 0.00 65
20260906202217 -4 0 0.0 0.0 0.00 0.00 0.00 64
20260906201718 -7 0 0.0 0.0 0.00 0.00 0.00 66
20260906201218 -8 0 0.0 0.0 0.00 0.00 0.00 66
20260906200718 -5 0 0.0 0.0 0.00 0.00 0.00 66
20260906200217 -55 152 1.0 3.0 0.00 0.00 0.00 64
20260906195718 0 0 0.0 0.0 0.00 0.00 0.00 64
20260906195218 0 0 0.0 0.0 0.00 0.00 0.00 61
20260906194718 -17 0 0.0 0.0 0.00 0.00 0.00 62
20260906194218 -14 0 0.0 0.0 0.00 0.00 0.00 61
20260906193718 16 0 0.0 0.0 0.00 0.00 0.00 62
20260906193218 17 3 0.0 3.0 0.00 0.00 0.00 63
20260906192718 0 0 0.0 0.0 0.00 0.00 0.00 65
20260906192218 19 0 0.0 0.0 0.00 0.00 0.00 65
20260906191718 0 0 0.0 0.0 0.00 0.00 0.00 64
20260906191218 0 0 0.0 0.0 0.00 0.00 0.00 62
20260906190719 0 0 0.0 0.0 0.00 0.00 0.00 63
20260906190218 0 0 0.0 0.0 0.00 0.00 0.00 62
20260906185718 0 0 0.0 0.0 0.00 0.00 0.00 63
20260906184718 1 0 0.0 0.0 0.00 0.00 0.00 67
20260906184218 2 0 0.0 0.0 0.00 0.00 0.00 69
20260906183718 6 0 0.0 0.0 0.00 0.00 0.00 70
20260906183218 31 0 0.0 0.0 0.00 0.00 0.00 68
20260906182718 20 0 0.0 0.0 0.00 0.00 0.00 68
20260906182218 21 0 0.0 0.0 0.00 0.00 0.00 70
20260906181718 23 0 0.0 0.0 0.00 0.00 0.00 69
20260906181218 25 0 0.0 0.0 0.00 0.00 0.00 69
20260906180718 37 0 0.0 0.0 0.00 0.00 0.00 67
20260906180218 34 3 0.0 1.0 0.00 0.00 0.00 66
20260906175718 77 0 0.0 0.0 0.00 0.00 0.00 65
20260906174718 42 3 1.0 3.0 0.00 0.00 0.00 68
20260906174218 -24 359 0.0 3.0 0.00 0.00 0.00 68
20260906173718 -17 0 0.0 0.0 0.00 0.00 0.00 69
20260906173218 -22 0 0.0 0.0 0.00 0.00 0.00 68
20260906172718 -21 0 0.0 0.0 0.00 0.00 0.00 66
20260906172218 -26 0 0.0 0.0 0.00 0.00 0.00 65
20260906170718 -55 110 0.0 2.0 0.00 0.00 0.00 66
20260906170218 0 359 0.0 3.0 0.00 0.00 0.00 65
20260906165718 0 359 0.0 1.0 0.00 0.00 0.00 68
20260906164718 0 0 0.0 0.0 0.00 0.00 0.00 69
20260906164218 0 103 0.0 3.0 0.00 0.00 0.00 69
20260906163718 19 0 0.0 0.0 0.00 0.00 0.00 68
20260906163218 0 0 0.0 0.0 0.00 0.00 0.00 69
20260906162718 76 0 0.0 0.0 0.00 0.00 0.00 71
20260906162218 0 0 0.0 0.0 0.00 0.00 0.00 73
20260906161718 0 0 0.0 0.0 0.00 0.00 0.00 72
20260906161218 -1 0 0.0 0.0 0.00 0.00 0.00 73
20260906160718 13 6 0.0 2.0 0.00 0.00 0.00 72
20260906160218 0 0 0.0 0.0 0.00 0.00 0.00 72
20260906155718 0 0 0.0 0.0 0.00 0.00 0.00 73
20260906154718 0 0 0.0 0.0 0.00 0.00 0.00 77
20260906154218 0 0 0.0 0.0 0.00 0.00 0.00 77
20260906153718 0 0 0.0 0.0 0.00 0.00 0.00 75
20260906153218 0 0 0.0 0.0 0.00 0.00 0.00 75
20260906152718 0 0 0.0 0.0 0.00 0.00 0.00 78
20260906152218 0 0 0.0 0.0 0.00 0.00 0.00 77
20260906151718 0 0 0.0 0.0 0.00 0.00 0.00 78
20260906151218 0 0 0.0 0.0 0.00 0.00 0.00 78
20260906150718 0 0 0.0 0.0 0.00 0.00 0.00 77
20260906150219 0 0 0.0 0.0 0.00 0.00 0.00 79
20260906145718 0 0 0.0 0.0 0.00 0.00 0.00 79
20260906145218 0 0 0.0 0.0 0.00 0.00 0.00 79
20260906144718 0 0 0.0 0.0 0.00 0.00 0.00 81
20260906144220 0 0 0.0 0.0 0.00 0.00 0.00 81
20260906143718 0 0 0.0 0.0 0.00 0.00 0.00 83
20260906143218 0 0 0.0 0.0 0.00 0.00 0.00 82
20260906142718 0 0 0.0 0.0 0.00 0.00 0.00 83
20260906142218 0 6 1.0 6.0 0.00 0.00 0.00 83
20260906141718 0 359 0.0 3.0 0.00 0.00 0.00 83
20260906141219 0 359 0.0 3.0 0.00 0.00 0.00 83
20260906140718 0 359 0.0 2.0 0.00 0.00 0.00 84
20260906140218 0 0 0.0 0.0 0.00 0.00 0.00 84
20260906135718 0 0 0.0 0.0 0.00 0.00 0.00 86
20260906135219 0 142 0.0 1.0 0.00 0.00 0.00 86
20260906134719 0 0 0.0 0.0 0.00 0.00 0.00 88
20260906134220 0 142 1.0 6.0 0.00 0.00 0.00 88
20260906133726 0 142 0.0 2.0 0.00 0.00 0.00 89
20260906133219 0 0 0.0 0.0 0.00 0.00 0.00 91
20260906132718 0 0 0.0 0.0 0.00 0.00 0.00 91
20260906132221 0 142 0.0 2.0 0.00 0.00 0.00 91
20260906131719 0 0 0.0 0.0 0.00 0.00 0.00 92
20260906131221 0 0 0.0 0.0 0.00 0.00 0.00 93
20260906130720 0 0 0.0 0.0 0.00 0.00 0.00 93
20260906130218 0 0 0.0 0.0 0.00 0.00 0.00 94
20260906125718 0 0 0.0 0.0 0.00 0.00 0.00 94
20260906125219 0 0 0.0 0.0 0.00 0.00 0.00 94
20260906124718 0 0 0.0 0.0 0.00 0.00 0.00 94
20260906124219 0 0 0.0 0.0 0.00 0.00 0.00 94
20260906123719 0 0 0.0 0.0 0.00 0.00 0.00 94
20260906123220 -55 0 0.0 0.0 0.00 0.00 0.00 94
20260906122718 0 0 0.0 0.0 0.00 0.00 0.00 95
20260906122220 0 0 0.0 0.0 0.00 0.00 0.00 95
20260906121718 0 0 0.0 0.0 0.00 0.00 0.00 95
20260906121218 0 0 0.0 0.0 0.00 0.00 0.00 96
20260906120718 0 0 0.0 0.0 0.00 0.00 0.00 96
20260906120218 0 142 0.0 3.0 0.00 0.00 0.00 96
20260906115718 0 0 0.0 0.0 0.00 0.00 0.00 96
20260906115218 0 0 0.0 0.0 0.00 0.00 0.00 96
20260906114719 0 0 0.0 0.0 0.00 0.00 0.00 96
20260906114219 0 0 0.0 0.0 0.00 0.00 0.00 96
20260906113718 0 0 0.0 0.0 0.00 0.00 0.00 96
20260906113219 -43 0 0.0 0.0 0.00 0.00 0.00 96
20260906112719 0 0 0.0 0.0 0.00 0.00 0.00 96
20260906112219 0 0 0.0 0.0 0.00 0.00 0.00 96
20260906111718 -31 0 0.0 0.0 0.00 0.00 0.00 96
20260906111219 0 0 0.0 0.0 0.00 0.00 0.00 96
20260906110722 0 0 0.0 0.0 0.00 0.00 0.00 96
20260906110218 0 0 0.0 0.0 0.00 0.00 0.00 96
20260906105718 0 0 0.0 0.0 0.00 0.00 0.00 96
20260906105219 0 0 0.0 0.0 0.00 0.00 0.00 96
20260906104718 0 0 0.0 0.0 0.00 0.00 0.00 96
20260906104219 0 0 0.0 0.0 0.00 0.00 0.00 96
20260906103718 0 0 0.0 0.0 0.00 0.00 0.00 96
20260906103219 0 0 0.0 0.0 0.00 0.00 0.00 96
20260906102718 0 0 0.0 0.0 0.00 0.00 0.00 96
20260906102218 0 0 0.0 0.0 0.00 0.00 0.00 95
20260906101719 0 0 0.0 0.0 0.00 0.00 0.00 95
20260906101218 0 0 0.0 0.0 0.00 0.00 0.00 95
20260906100719 0 0 0.0 0.0 0.00 0.00 0.00 95
20260906100219 0 0 0.0 0.0 0.00 0.00 0.00 95
20260906095719 0 0 0.0 0.0 0.00 0.00 0.00 95
20260906095219 0 0 0.0 0.0 0.00 0.00 0.00 95
20260906094719 0 0 0.0 0.0 0.00 0.00 0.00 95
20260906094219 0 0 0.0 0.0 0.00 0.00 0.00 95
20260906093719 0 0 0.0 0.0 0.00 0.00 0.00 95
20260906093219 0 0 0.0 0.0 0.00 0.00 0.00 95
20260906092719 0 0 0.0 0.0 0.00 0.00 0.00 95
20260906092219 0 0 0.0 0.0 0.00 0.00 0.00 95
20260906091719 0 0 0.0 0.0 0.00 0.00 0.00 95
20260906091221 0 0 0.0 0.0 0.00 0.00 0.00 95
20260906090719 0 0 0.0 0.0 0.00 0.00 0.00 95
20260906090219 0 0 0.0 0.0 0.00 0.00 0.00 95
20260906085719 0 0 0.0 0.0 0.00 0.00 0.00 95
20260906085219 0 0 0.0 0.0 0.00 0.00 0.00 95
20260906084719 0 0 0.0 0.0 0.00 0.00 0.00 95
20260906084220 0 0 0.0 0.0 0.00 0.00 0.00 95
20260906083719 5 0 0.0 0.0 0.00 0.00 0.00 95
20260906083219 16 0 0.0 0.0 0.00 0.00 0.00 95
20260906082719 9 0 0.0 0.0 0.00 0.00 0.00 95
20260906082219 0 0 0.0 0.0 0.00 0.00 0.00 95
20260906081719 0 0 0.0 0.0 0.00 0.00 0.00 95
20260906081219 -8 0 0.0 0.0 0.00 0.00 0.00 95
20260906080719 16 0 0.0 0.0 0.00 0.00 0.00 95
20260906080219 -13 0 0.0 0.0 0.00 0.00 0.00 95
20260906075719 -9 0 0.0 0.0 0.00 0.00 0.00 95
20260906075219 -14 0 0.0 0.0 0.00 0.00 0.00 95
20260906074720 -40 0 0.0 0.0 0.00 0.00 0.00 95
20260906074222 -21 59 1.0 5.0 0.00 0.00 0.00 95
20260906073720 -26 59 0.0 4.0 0.00 0.00 0.00 95
20260906073219 -38 0 0.0 0.0 0.00 0.00 0.00 95
20260906072719 -23 0 0.0 0.0 0.00 0.00 0.00 95
20260906072221 -37 0 0.0 0.0 0.00 0.00 0.00 95
20260906071719 -39 0 0.0 0.0 0.00 0.00 0.00 95
20260906071220 0 41 0.0 2.0 0.00 0.00 0.00 95
20260906070719 0 0 0.0 0.0 0.00 0.00 0.00 95
20260906070219 0 0 0.0 0.0 0.00 0.00 0.00 95
20260906065719 0 0 0.0 0.0 0.00 0.00 0.00 94
20260906065219 0 0 0.0 0.0 0.00 0.00 0.00 94
20260906064719 0 0 0.0 0.0 0.00 0.00 0.00 95
20260906064221 0 0 0.0 0.0 0.00 0.00 0.00 95
20260906063720 0 0 0.0 0.0 0.00 0.00 0.00 94
20260906063223 0 0 0.0 0.0 0.00 0.00 0.00 94
20260906062719 0 0 0.0 0.0 0.00 0.00 0.00 94
20260906062219 0 0 0.0 0.0 0.00 0.00 0.00 94
20260906061719 0 0 0.0 0.0 0.00 0.00 0.00 94
20260906061219 -55 0 0.0 0.0 0.00 0.00 0.00 94
20260906060719 0 0 0.0 0.0 0.00 0.00 0.00 95
20260906060221 0 0 0.0 0.0 0.00 0.00 0.00 95
20260906055721 0 0 0.0 0.0 0.00 0.00 0.00 95
20260906055219 0 0 0.0 0.0 0.00 0.00 0.00 95
20260906054719 -50 0 0.0 0.0 0.00 0.00 0.00 95
20260906054220 0 0 0.0 0.0 0.00 0.00 0.00 94
20260906053719 -55 0 0.0 0.0 0.00 0.00 0.00 95
20260906053220 0 0 0.0 0.0 0.00 0.00 0.00 94
20260906052719 0 0 0.0 0.0 0.00 0.00 0.00 94
20260906052219 -55 0 0.0 0.0 0.00 0.00 0.00 94
20260906051719 -55 0 0.0 0.0 0.00 0.00 0.00 94
20260906051219 -12 0 0.0 0.0 0.00 0.00 0.00 94
20260906050719 -3 0 0.0 0.0 0.00 0.00 0.00 94
20260906050219 -3 0 0.0 0.0 0.00 0.00 0.00 94
20260906045721 -18 0 0.0 0.0 0.00 0.00 0.00 94
20260906044719 -21 0 0.0 0.0 0.00 0.00 0.00 94
20260906044220 -16 0 0.0 0.0 0.00 0.00 0.00 94
20260906043719 -5 0 0.0 0.0 0.00 0.00 0.00 94
20260906043219 -2 0 0.0 0.0 0.00 0.00 0.00 94
20260906042719 8 0 0.0 0.0 0.00 0.00 0.00 94
20260906042220 -7 0 0.0 0.0 0.00 0.00 0.00 93
20260906041719 3 0 0.0 0.0 0.00 0.00 0.00 93
20260906041220 3 0 0.0 0.0 0.00 0.00 0.00 93
20260906040719 3 0 0.0 0.0 0.00 0.00 0.00 92
20260906040220 5 0 0.0 0.0 0.00 0.00 0.00 92
20260906035720 4 0 0.0 0.0 0.00 0.00 0.00 92
20260906035219 14 0 0.0 0.0 0.00 0.00 0.00 92
20260906034719 4 0 0.0 0.0 0.00 0.00 0.00 92
20260906034221 3 0 0.0 0.0 0.00 0.00 0.00 92
20260906033719 7 0 0.0 0.0 0.00 0.00 0.00 92
20260906033221 12 0 0.0 0.0 0.00 0.00 0.00 92
20260906032719 10 0 0.0 0.0 0.00 0.00 0.00 92
20260906032219 11 0 0.0 0.0 0.00 0.00 0.00 92
20260906031719 11 0 0.0 0.0 0.00 0.00 0.00 92
20260906031219 12 0 0.0 0.0 0.00 0.00 0.00 91
20260906030719 -1 0 0.0 0.0 0.00 0.00 0.00 92
20260906025719 16 0 0.0 0.0 0.00 0.00 0.00 92
20260906025219 13 0 0.0 0.0 0.00 0.00 0.00 91
20260906024720 12 0 0.0 0.0 0.00 0.00 0.00 91
20260906024221 5 0 0.0 0.0 0.00 0.00 0.00 91
20260906023719 13 0 0.0 0.0 0.00 0.00 0.00 91
20260906023220 4 0 0.0 0.0 0.00 0.00 0.00 91
20260906022719 6 0 0.0 0.0 0.00 0.00 0.00 90
20260906022220 14 0 0.0 0.0 0.00 0.00 0.00 91
20260906021720 15 0 0.0 0.0 0.00 0.00 0.00 90
20260906021221 9 0 0.0 0.0 0.00 0.00 0.00 90
20260906020720 10 0 0.0 0.0 0.00 0.00 0.00 89
20260906020219 8 0 0.0 0.0 0.00 0.00 0.00 88
20260906015719 7 0 0.0 0.0 0.00 0.00 0.00 88
20260906015223 8 0 0.0 0.0 0.00 0.00 0.00 88
20260906014721 15 0 0.0 0.0 0.00 0.00 0.00 87
20260906014220 10 0 0.0 0.0 0.00 0.00 0.00 87
20260906013720 9 0 0.0 0.0 0.00 0.00 0.00 86
20260906013221 12 0 0.0 0.0 0.00 0.00 0.00 85
20260906012720 17 0 0.0 0.0 0.00 0.00 0.00 85
20260906012221 8 0 0.0 0.0 0.00 0.00 0.00 85
20260906011720 11 0 0.0 0.0 0.00 0.00 0.00 85
20260906011220 -3 0 0.0 0.0 0.00 0.00 0.00 84
20260906010722 -5 0 0.0 0.0 0.00 0.00 0.00 84
20260906010220 -8 0 0.0 0.0 0.00 0.00 0.00 83
20260906005720 -9 0 0.0 0.0 0.00 0.00 0.00 82
20260906005220 2 0 0.0 0.0 0.00 0.00 0.00 82
20260906004720 3 0 0.0 0.0 0.00 0.00 0.00 81
20260906004220 -2 0 0.0 0.0 0.00 0.00 0.00 80
20260906003722 -1 0 0.0 0.0 0.00 0.00 0.00 80
20260906003220 -4 0 0.0 0.0 0.00 0.00 0.00 78
20260906002720 -8 0 0.0 0.0 0.00 0.00 0.00 77
20260906002220 8 0 0.0 0.0 0.00 0.00 0.00 76
20260906001722 11 0 0.0 0.0 0.00 0.00 0.00 75
20260906001220 6 0 0.0 0.0 0.00 0.00 0.00 75
20260906000721 1 0 0.0 0.0 0.00 0.00 0.00 74
20260905235722 3 0 0.0 0.0 0.00 0.00 0.00 72
20260905235221 -6 0 0.0 0.0 0.00 0.00 0.00 71
20260905234720 -2 0 0.0 0.0 0.00 0.00 0.00 69
20260905234220 -1 0 0.0 0.0 0.00 0.00 0.00 69
20260905233721 1 0 0.0 0.0 0.00 0.00 0.00 68
20260905233220 -1 0 0.0 0.0 0.00 0.00 0.00 67
20260905232721 -4 0 0.0 0.0 0.00 0.00 0.00 67
20260905232220 -1 0 0.0 0.0 0.00 0.00 0.00 67